weather.gov     
National Weather Service

Terminal Aerodrome Forecast
NWS Homepage
This page is being discontinued on March 12, 2014.
The same data is available at this site. Please update your bookmarks.
Thank you, and we apologize for the inconvenience.
Please send an email to SR-SRH.Webmaster@noaa.gov with any concerns.


Current Version
Previous Version:    01  02  03  04  05  06  07  08  09  10  11  12  13  14  15  16  17  18  19  20  21  
[Printable]
517
FTUS45 KREV 310500
TAFTVL
TAF
KTVL 310520Z 3106/0106 19010KT P6SM FEW140 OVC180
     FM311500 19015G24KT P6SM FEW080 BKN120
     FM312200 20010G18KT P6SM -RA BKN040 OVC080
     FM010100 19008KT 5SM -RA OVC030=


U.S. Dept. of Commerce
NOAA National Weather Service
1325 East West Highway
Silver Spring, MD 20910
E-mail: w-nws.webmaster@noaa.gov
Page last modified: May 16, 2007
NATIONAL WEATHER SERVICE: for Safety, for Work, for Fun - FOR LIFE